This demonstration page uses our WeatherBlox Daily Observations layout. Learn more.

Left ArrowRight Arrow

31.84235, -102.49876

Hourly Observations for June 19, 2022

Temp ( °F °C ) Dew Point ( °F °C ) Humidity (%) Winds ( mph kmh ) Pressure ( in mb ) Visibility ( mi km ) Precip ( " mm )
12:53 am 00:53 Clear 83 28.3 50 10 32 32 S 16 26 29.88 1012 10 16 0.00 0.00
1:53 am 01:53 Clear 81 27.2 52 11.1 37 37 S 13 20 29.88 1012 10 16 0.00 0.00
2:53 am 02:53 Clear 81 27.2 55 12.8 41 41 S 15 24 29.87 1012 10 16 0.00 0.00
3:53 am 03:53 Clear 80 26.7 56 13.3 44 44 S 16 26 29.87 1011 10 16 0.00 0.00
4:53 am 04:53 Clear 78 25.6 56 13.3 47 47 SSE 13 20 29.89 1012 10 16 0.00 0.00
5:53 am 05:53 Clear 77 25 60 15.6 56 56 S 9 15 29.91 1013 10 16 0.00 0.00
6:53 am 06:53 Sunny 76 24.4 63 17.2 64 64 SSE 12 19 29.93 1014 10 16 0.00 0.00
7:53 am 07:53 Sunny 77 25 64 17.8 64 64 SSE 12 19 29.96 1015 10 16 0.00 0.00
8:53 am 08:53 Sunny 79 26.1 64 17.8 60 60 SSE 16 26 29.96 1015 10 16 0.00 0.00
9:53 am 09:53 Sunny 82 27.8 62 16.7 51 51 SSE 17 28 29.97 1015 10 16 0.00 0.00
10:53 am 10:53 Sunny 85 29.4 61 16.1 45 45 S 17 28 29.96 1014 10 16 0.00 0.00
11:53 am 11:53 Sunny 87 30.6 59 15 39 39 S 17 28 29.94 1014 10 16 0.00 0.00
12:53 pm 12:53 Mostly Sunny 90 32.2 56 13.3 32 32 SSE 18 30 29.93 1014 10 16 0.00 0.00
1:53 pm 13:53 Mostly Sunny 93 33.9 57 13.9 30 30 SSE 15 24 29.92 1013 10 16 0.00 0.00
2:53 pm 14:53 Mostly Sunny 93 33.9 57 13.9 30 30 S 15 24 29.88 1012 10 16 0.00 0.00
3:53 pm 15:53 Mostly Sunny 95 35 55 12.8 26 26 SE 17 28 29.86 1011 10 16 0.00 0.00
4:53 pm 16:53 Mostly Sunny 95 35 53 11.7 24 24 SSE 15 24 29.84 1011 10 16 0.00 0.00
5:53 pm 17:53 Sunny 95 35 53 11.7 24 24 SE 18 30 29.83 1010 10 16 0.00 0.00
6:53 pm 18:53 Sunny 93 33.9 53 11.7 26 26 SSE 20 31 29.82 1010 10 16 0.00 0.00
7:53 pm 19:53 Mostly Sunny 92 33.3 54 12.2 28 28 S 21 33 29.83 1010 10 16 0.00 0.00
8:53 pm 20:53 Sunny 89 31.7 54 12.2 30 30 S 18 30 29.84 1011 10 16 0.00 0.00
9:53 pm 21:53 Clear 87 30.6 54 12.2 32 32 SSE 15 24 29.86 1011 10 16 0.00 0.00
10:53 pm 22:53 Clear 86 30 54 12.2 33 33 SSE 13 20 29.88 1012 10 16 0.00 0.00
11:53 pm 23:53 Clear 84 28.9 54 12.2 36 36 SSE 16 26 29.89 1012 10 16 0.00 0.00

Powered by AerisWeather